Simultaneous Nadir Overpasses (SNOs) Predictions

Prediction of SNOs between GOES-17 and LANDSAT-8 Satellite Orbit:

Table of predicted SNOs for the next 14.0 days since TLE Epoch: 12/14/2024
Index Date Time (GOES-17) GOES-17 Lat,Lon LANDSAT-8 Lat,Lon Distance(km) Time Diff (sec)
1 12/14/2024 16:54:25 -0.01,-104.71 -0.97,-100.32 499.36 80
2 12/15/2024 05:15:49 0.01,-104.67 -0.16,-105.50 94.79 80
3 12/17/2024 05:00:58 -0.01,-104.67 0.44,-102.55 241.39 80
4 12/17/2024 17:22:14 0.01,-104.70 0.63,-107.71 341.81 80
5 12/19/2024 17:10:02 0.03,-104.70 0.05,-104.74 5.11 80
6 12/21/2024 17:00:31 0.04,-104.71 -0.61,-101.79 332.68 80
7 12/22/2024 05:21:55 -0.04,-104.69 -0.50,-106.98 259.78 80
8 12/24/2024 05:07:03 -0.04,-104.70 0.13,-104.02 77.88 80
9 12/26/2024 04:54:50 -0.04,-104.71 0.73,-101.05 415.44 80
10 12/26/2024 17:16:06 0.04,-104.73 0.33,-106.22 168.67 80
